^^
Your Local Weather - Clay, NY Station Historical Data
Daily Summary for January 28, 2017 Units:  English    Metric   Both
« Previous Day
Next Day »
Daily Weekly Monthly Yearly Custom
  High: Low: Average:
Temperature: 33.7 °F 29.2 °F 31 °F
Dew Point: 25.6 °F 20.7 °F 23.4 °F
Humidity: 85% 61% 73%
Wind Speed: 6.0mph 1.0mph 3.9mph
Wind Gust: 14.0mph - -
Wind- - WSW
Pressure: 29.60 in 29.54 in -
Precipitation: 0.00 in    
Historical Graphs
 
 
Tabular Data for January 28, 2017
Time Temperature Dew Point Pressure Wind Wind Speed Wind Gust Humidity Rainfall Rate (Hourly) solar
00:04 31.9 °F 22.5 °F 29.55 in NW 3.0 mph 7.0 mph 68% 0.00 in 0 W/m2
00:09 31.9 °F 22.5 °F 29.55 in WNW 4.0 mph 7.0 mph 68% 0.00 in 0 W/m2
00:16 31.8 °F 22.4 °F 29.55 in West 5.0 mph 9.0 mph 68% 0.00 in 0 W/m2
00:22 31.7 °F 22.7 °F 29.55 in WSW 4.0 mph 7.0 mph 69% 0.00 in 0 W/m2
00:28 31.6 °F 22.6 °F 29.55 in West 3.0 mph 7.0 mph 69% 0.00 in 0 W/m2
00:33 31.6 °F 22.2 °F 29.54 in West 4.0 mph 8.0 mph 68% 0.00 in 0 W/m2
00:39 31.6 °F 22.6 °F 29.55 in WSW 4.0 mph 4.0 mph 69% 0.00 in 0 W/m2
00:46 31.5 °F 22.5 °F 29.54 in West 3.0 mph 6.0 mph 69% 0.00 in 0 W/m2
00:52 31.4 °F 22.7 °F 29.54 in NW 4.0 mph 6.0 mph 70% 0.00 in 0 W/m2
00:58 31.4 °F 22.7 °F 29.54 in WSW 3.0 mph 6.0 mph 70% 0.00 in 0 W/m2
01:04 31.3 °F 22.6 °F 29.54 in West 3.0 mph 3.0 mph 70% 0.00 in 0 W/m2
01:10 31.3 °F 22.6 °F 29.54 in West 4.0 mph 7.0 mph 70% 0.00 in 0 W/m2
01:15 31.3 °F 23.0 °F 29.54 in West 4.0 mph 7.0 mph 71% 0.00 in 0 W/m2
01:22 31.3 °F 22.6 °F 29.54 in WNW 5.0 mph 5.0 mph 70% 0.00 in 0 W/m2
01:28 31.3 °F 23.0 °F 29.54 in WSW 4.0 mph 6.0 mph 71% 0.00 in 0 W/m2
01:33 31.3 °F 22.6 °F 29.54 in West 4.0 mph 10.0 mph 70% 0.00 in 0 W/m2
01:39 31.4 °F 22.7 °F 29.54 in West 5.0 mph 5.0 mph 70% 0.00 in 0 W/m2
01:46 31.3 °F 22.6 °F 29.54 in SW 5.0 mph 6.0 mph 70% 0.00 in 0 W/m2
01:52 31.2 °F 22.5 °F 29.54 in WSW 4.0 mph 5.0 mph 70% 0.00 in 0 W/m2
01:58 31.2 °F 22.9 °F 29.55 in West 4.0 mph 6.0 mph 71% 0.00 in 0 W/m2
02:04 31.1 °F 23.1 °F 29.55 in WSW 4.0 mph 7.0 mph 72% 0.00 in 0 W/m2
02:10 31.1 °F 22.8 °F 29.55 in West 6.0 mph 6.0 mph 71% 0.00 in 0 W/m2
02:15 31.1 °F 22.8 °F 29.55 in WSW 5.0 mph 8.0 mph 71% 0.00 in 0 W/m2
02:22 31.0 °F 22.7 °F 29.55 in WSW 4.0 mph 4.0 mph 71% 0.00 in 0 W/m2
02:28 31.0 °F 22.7 °F 29.55 in West 4.0 mph 10.0 mph 71% 0.00 in 0 W/m2
02:34 31.0 °F 22.7 °F 29.55 in SW 5.0 mph 5.0 mph 71% 0.00 in 0 W/m2
02:40 31.0 °F 22.7 °F 29.55 in SW 4.0 mph 4.0 mph 71% 0.00 in 0 W/m2
02:45 31.0 °F 22.7 °F 29.55 in West 5.0 mph 5.0 mph 71% 0.00 in 0 W/m2
02:52 31.0 °F 22.7 °F 29.56 in West 4.0 mph 5.0 mph 71% 0.00 in 0 W/m2
02:58 31.0 °F 22.7 °F 29.56 in WSW 5.0 mph 8.0 mph 71% 0.00 in 0 W/m2
03:03 31.0 °F 22.7 °F 29.56 in West 5.0 mph 7.0 mph 71% 0.00 in 0 W/m2
03:09 31.0 °F 22.7 °F 29.56 in West 4.0 mph 4.0 mph 71% 0.00 in 0 W/m2
03:16 31.0 °F 22.7 °F 29.56 in SSW 5.0 mph 7.0 mph 71% 0.00 in 0 W/m2
03:22 30.9 °F 22.6 °F 29.56 in WSW 5.0 mph 6.0 mph 71% 0.00 in 0 W/m2
03:28 30.9 °F 22.6 °F 29.56 in SSW 4.0 mph 7.0 mph 71% 0.00 in 0 W/m2
03:34 30.9 °F 22.6 °F 29.55 in West 3.0 mph 5.0 mph 71% 0.00 in 0 W/m2
03:39 30.9 °F 22.6 °F 29.55 in West 3.0 mph 7.0 mph 71% 0.00 in 0 W/m2
03:46 30.9 °F 22.6 °F 29.55 in WSW 5.0 mph 7.0 mph 71% 0.00 in 0 W/m2
03:52 30.9 °F 22.6 °F 29.55 in West 4.0 mph 4.0 mph 71% 0.00 in 0 W/m2
03:58 30.9 °F 22.6 °F 29.55 in WSW 3.0 mph 4.0 mph 71% 0.00 in 0 W/m2
04:04 30.9 °F 22.6 °F 29.55 in West 4.0 mph 4.0 mph 71% 0.00 in 0 W/m2
04:10 30.9 °F 22.6 °F 29.55 in WNW 3.0 mph 6.0 mph 71% 0.00 in 0 W/m2
04:15 30.9 °F 22.6 °F 29.55 in WNW 4.0 mph 6.0 mph 71% 0.00 in 0 W/m2
04:22 30.9 °F 22.6 °F 29.55 in WSW 5.0 mph 6.0 mph 71% 0.00 in 0 W/m2
04:28 30.9 °F 22.6 °F 29.55 in SW 4.0 mph 8.0 mph 71% 0.00 in 0 W/m2
04:34 30.8 °F 22.5 °F 29.55 in SW 5.0 mph 5.0 mph 71% 0.00 in 0 W/m2
04:39 30.9 °F 22.9 °F 29.55 in WSW 5.0 mph 5.0 mph 72% 0.00 in 0 W/m2
04:45 30.8 °F 22.8 °F 29.55 in WSW 4.0 mph 8.0 mph 72% 0.00 in 0 W/m2
04:52 30.9 °F 22.9 °F 29.54 in SSW 5.0 mph 7.0 mph 72% 0.00 in 0 W/m2
04:58 30.8 °F 22.8 °F 29.54 in West 5.0 mph 7.0 mph 72% 0.00 in 0 W/m2
05:04 30.8 °F 22.8 °F 29.54 in WSW 5.0 mph 9.0 mph 72% 0.00 in 0 W/m2
05:10 30.8 °F 22.8 °F 29.55 in West 5.0 mph 5.0 mph 72% 0.00 in 0 W/m2
05:16 30.8 °F 22.8 °F 29.55 in West 4.0 mph 5.0 mph 72% 0.00 in 0 W/m2
05:22 30.7 °F 23.1 °F 29.55 in WSW 3.0 mph 8.0 mph 73% 0.00 in 0 W/m2
05:28 30.7 °F 23.1 °F 29.56 in WNW 4.0 mph 8.0 mph 73% 0.00 in 0 W/m2
05:34 30.7 °F 23.1 °F 29.55 in West 4.0 mph 4.0 mph 73% 0.00 in 0 W/m2
05:40 30.7 °F 23.1 °F 29.56 in WSW 4.0 mph 5.0 mph 73% 0.00 in 0 W/m2
05:46 30.7 °F 23.1 °F 29.56 in SW 4.0 mph 8.0 mph 73% 0.00 in 0 W/m2
05:52 30.7 °F 23.1 °F 29.56 in West 4.0 mph 4.0 mph 73% 0.00 in 0 W/m2
05:58 30.6 °F 23.0 °F 29.56 in WNW 4.0 mph 4.0 mph 73% 0.00 in 0 W/m2
06:04 30.7 °F 23.1 °F 29.56 in WSW 4.0 mph 4.0 mph 73% 0.00 in 0 W/m2
06:09 30.7 °F 23.1 °F 29.56 in WNW 4.0 mph 4.0 mph 73% 0.00 in 0 W/m2
06:16 30.6 °F 23.0 °F 29.56 in WSW 4.0 mph 5.0 mph 73% 0.00 in 0 W/m2
06:22 30.7 °F 23.1 °F 29.56 in WSW 4.0 mph 6.0 mph 73% 0.00 in 0 W/m2
06:29 30.7 °F 23.1 °F 29.56 in West 3.0 mph 3.0 mph 73% 0.00 in 0 W/m2
06:35 30.6 °F 23.0 °F 29.56 in WSW 2.0 mph 5.0 mph 73% 0.00 in 0 W/m2
06:42 30.6 °F 22.6 °F 29.56 in SW 3.0 mph 7.0 mph 72% 0.00 in 0 W/m2
06:48 30.7 °F 22.7 °F 29.56 in WSW 3.0 mph 7.0 mph 72% 0.00 in 0 W/m2
06:53 30.7 °F 22.4 °F 29.56 in SW 4.0 mph 11.0 mph 71% 0.00 in 0 W/m2
06:59 30.7 °F 22.1 °F 29.56 in WSW 5.0 mph 5.0 mph 70% 0.00 in 0 W/m2
07:06 30.7 °F 22.4 °F 29.57 in West 4.0 mph 5.0 mph 71% 0.00 in 0 W/m2
07:12 30.6 °F 22.6 °F 29.56 in SW 4.0 mph 4.0 mph 72% 0.00 in 0 W/m2
07:18 30.5 °F 22.5 °F 29.57 in West 4.0 mph 4.0 mph 72% 0.00 in 0 W/m2
07:24 30.4 °F 22.8 °F 29.56 in WSW 5.0 mph 8.0 mph 73% 0.00 in 0 W/m2
07:30 30.4 °F 23.1 °F 29.57 in West 4.0 mph 5.0 mph 74% 0.00 in 0 W/m2
07:35 30.3 °F 23.0 °F 29.57 in WNW 4.0 mph 7.0 mph 74% 0.00 in 5 W/m2
07:42 30.3 °F 23.0 °F 29.57 in West 4.0 mph 4.0 mph 74% 0.00 in 7 W/m2
07:48 30.3 °F 23.0 °F 29.57 in WSW 4.0 mph 7.0 mph 74% 0.00 in 7 W/m2
07:54 30.3 °F 23.0 °F 29.57 in WSW 4.0 mph 6.0 mph 74% 0.00 in 11 W/m2
07:59 30.2 °F 22.9 °F 29.57 in West 4.0 mph 11.0 mph 74% 0.00 in 12 W/m2
08:06 30.2 °F 22.9 °F 29.57 in WSW 5.0 mph 11.0 mph 74% 0.00 in 16 W/m2
08:12 30.1 °F 22.8 °F 29.58 in West 4.0 mph 5.0 mph 74% 0.00 in 19 W/m2
08:18 30.1 °F 22.8 °F 29.58 in West 4.0 mph 5.0 mph 74% 0.00 in 21 W/m2
08:23 30.1 °F 22.8 °F 29.59 in WNW 3.0 mph 6.0 mph 74% 0.00 in 25 W/m2
08:30 30.3 °F 22.7 °F 29.58 in WSW 4.0 mph 14.0 mph 73% 0.00 in 32 W/m2
08:35 30.3 °F 22.7 °F 29.59 in WSW 4.0 mph 14.0 mph 73% 0.00 in 30 W/m2
08:42 30.4 °F 22.8 °F 29.59 in West 4.0 mph 4.0 mph 73% 0.00 in 32 W/m2
08:48 30.4 °F 22.8 °F 29.59 in WSW 4.0 mph 4.0 mph 73% 0.00 in 37 W/m2
08:53 30.4 °F 22.8 °F 29.59 in WSW 3.0 mph 5.0 mph 73% 0.00 in 42 W/m2
09:00 30.4 °F 22.4 °F 29.59 in NW 3.0 mph 3.0 mph 72% 0.00 in 53 W/m2
09:05 30.4 °F 22.4 °F 29.59 in West 5.0 mph 8.0 mph 72% 0.00 in 62 W/m2
09:12 30.5 °F 22.5 °F 29.60 in West 4.0 mph 7.0 mph 72% 0.00 in 70 W/m2
09:18 30.6 °F 22.6 °F 29.60 in West 4.0 mph 7.0 mph 72% 0.00 in 77 W/m2
09:23 30.7 °F 22.7 °F 29.59 in West 5.0 mph 7.0 mph 72% 0.00 in 83 W/m2
09:29 30.7 °F 22.4 °F 29.60 in WSW 5.0 mph 5.0 mph 71% 0.00 in 98 W/m2
09:36 30.9 °F 22.3 °F 29.60 in West 5.0 mph 10.0 mph 70% 0.00 in 109 W/m2
09:42 31.0 °F 22.0 °F 29.60 in WSW 5.0 mph 7.0 mph 69% 0.00 in 104 W/m2
09:48 31.1 °F 21.8 °F 29.60 in West 5.0 mph 9.0 mph 68% 0.00 in 114 W/m2
09:53 31.2 °F 21.5 °F 29.60 in WSW 5.0 mph 10.0 mph 67% 0.00 in 137 W/m2
10:00 31.4 °F 21.7 °F 29.60 in WSW 4.0 mph 4.0 mph 67% 0.00 in 155 W/m2
10:06 31.7 °F 21.6 °F 29.60 in WSW 3.0 mph 7.0 mph 66% 0.00 in 130 W/m2
10:12 31.7 °F 21.6 °F 29.60 in WSW 3.0 mph 6.0 mph 66% 0.00 in 127 W/m2
10:18 31.7 °F 21.6 °F 29.60 in WNW 3.0 mph 10.0 mph 66% 0.00 in 127 W/m2
10:23 31.7 °F 21.3 °F 29.60 in West 5.0 mph 6.0 mph 65% 0.00 in 135 W/m2
10:30 31.9 °F 21.8 °F 29.60 in West 4.0 mph 4.0 mph 66% 0.00 in 142 W/m2
10:36 32.0 °F 21.2 °F 29.60 in West 4.0 mph 9.0 mph 64% 0.00 in 156 W/m2
10:42 32.2 °F 21.4 °F 29.60 in West 5.0 mph 5.0 mph 64% 0.00 in 178 W/m2
10:48 32.3 °F 21.1 °F 29.60 in West 5.0 mph 10.0 mph 63% 0.00 in 216 W/m2
10:54 32.4 °F 21.2 °F 29.60 in West 5.0 mph 7.0 mph 63% 0.00 in 211 W/m2
11:00 32.5 °F 21.3 °F 29.60 in West 6.0 mph 6.0 mph 63% 0.00 in 214 W/m2
11:06 32.6 °F 21.0 °F 29.60 in West 5.0 mph 8.0 mph 62% 0.00 in 232 W/m2
11:12 32.7 °F 20.7 °F 29.60 in WNW 6.0 mph 6.0 mph 61% 0.00 in 185 W/m2
11:18 32.7 °F 21.1 °F 29.60 in NW 6.0 mph 10.0 mph 62% 0.00 in 188 W/m2
11:23 33.0 °F 21.4 °F 29.60 in WSW 6.0 mph 6.0 mph 62% 0.00 in 190 W/m2
11:29 33.1 °F 21.1 °F 29.59 in West 5.0 mph 5.0 mph 61% 0.00 in 251 W/m2
11:35 33.4 °F 21.8 °F 29.59 in West 5.0 mph 5.0 mph 62% 0.00 in 251 W/m2
11:42 33.6 °F 22.3 °F 29.59 in SW 4.0 mph 9.0 mph 63% 0.00 in 255 W/m2
11:48 33.7 °F 22.1 °F 29.59 in SW 5.0 mph 9.0 mph 62% 0.00 in 221 W/m2
11:54 33.4 °F 21.4 °F 29.59 in WNW 6.0 mph 10.0 mph 61% 0.00 in 220 W/m2
12:00 33.4 °F 22.1 °F 29.59 in SSW 6.0 mph 9.0 mph 63% 0.00 in 236 W/m2
12:05 32.9 °F 22.4 °F 29.59 in West 6.0 mph 9.0 mph 65% 0.00 in 264 W/m2
12:12 33.1 °F 23.0 °F 29.59 in West 6.0 mph 6.0 mph 66% 0.00 in 320 W/m2
12:18 32.5 °F 23.1 °F 29.59 in West 6.0 mph 8.0 mph 68% 0.00 in 237 W/m2
12:24 32.6 °F 23.9 °F 29.59 in SW 5.0 mph 7.0 mph 70% 0.00 in 243 W/m2
12:30 32.2 °F 23.5 °F 29.59 in SSW 5.0 mph 5.0 mph 70% 0.00 in 239 W/m2
12:36 32.3 °F 23.6 °F 29.59 in West 5.0 mph 7.0 mph 70% 0.00 in 178 W/m2
12:42 32.2 °F 23.5 °F 29.59 in SW 5.0 mph 6.0 mph 70% 0.00 in 206 W/m2
12:48 32.3 °F 23.6 °F 29.59 in WSW 5.0 mph 6.0 mph 70% 0.00 in 135 W/m2
12:54 31.9 °F 23.6 °F 29.59 in WSW 5.0 mph 10.0 mph 71% 0.00 in 178 W/m2
13:00 31.8 °F 23.8 °F 29.59 in West 6.0 mph 10.0 mph 72% 0.00 in 248 W/m2
13:06 31.8 °F 24.1 °F 29.59 in WNW 6.0 mph 10.0 mph 73% 0.00 in 199 W/m2
13:12 31.9 °F 24.2 °F 29.59 in WNW 5.0 mph 8.0 mph 73% 0.00 in 192 W/m2
13:18 31.7 °F 24.7 °F 29.58 in WSW 4.0 mph 8.0 mph 75% 0.00 in 213 W/m2
13:24 31.5 °F 24.8 °F 29.58 in WSW 4.0 mph 6.0 mph 76% 0.00 in 181 W/m2
13:30 31.4 °F 25.0 °F 29.58 in SW 4.0 mph 4.0 mph 77% 0.00 in 179 W/m2
13:36 31.3 °F 25.2 °F 29.58 in WSW 4.0 mph 6.0 mph 78% 0.00 in 134 W/m2
13:42 30.9 °F 25.2 °F 29.58 in SW 4.0 mph 8.0 mph 79% 0.00 in 81 W/m2
13:48 30.7 °F 25.0 °F 29.58 in WSW 4.0 mph 8.0 mph 79% 0.00 in 62 W/m2
13:54 30.4 °F 25.0 °F 29.58 in WNW 4.0 mph 4.0 mph 80% 0.00 in 53 W/m2
14:00 30.3 °F 25.2 °F 29.58 in WSW 3.0 mph 6.0 mph 81% 0.00 in 54 W/m2
14:06 30.4 °F 25.6 °F 29.58 in SW 3.0 mph 6.0 mph 82% 0.00 in 51 W/m2
14:12 30.4 °F 25.3 °F 29.58 in SSW 4.0 mph 6.0 mph 81% 0.00 in 63 W/m2
14:18 30.6 °F 25.5 °F 29.58 in SSW 3.0 mph 6.0 mph 81% 0.00 in 65 W/m2
14:23 30.7 °F 25.3 °F 29.58 in WSW 4.0 mph 7.0 mph 80% 0.00 in 91 W/m2
14:29 30.8 °F 25.4 °F 29.58 in SW 4.0 mph 4.0 mph 80% 0.00 in 105 W/m2
14:35 31.0 °F 25.2 °F 29.58 in SW 4.0 mph 4.0 mph 79% 0.00 in 130 W/m2
14:42 31.2 °F 25.1 °F 29.57 in SW 4.0 mph 6.0 mph 78% 0.00 in 116 W/m2
14:48 31.4 °F 25.0 °F 29.57 in South 4.0 mph 6.0 mph 77% 0.00 in 104 W/m2
14:54 31.6 °F 25.2 °F 29.58 in WSW 5.0 mph 5.0 mph 77% 0.00 in 81 W/m2
14:59 31.7 °F 25.0 °F 29.58 in SW 4.0 mph 5.0 mph 76% 0.00 in 77 W/m2
15:05 31.7 °F 25.0 °F 29.58 in SW 4.0 mph 8.0 mph 76% 0.00 in 56 W/m2
15:12 31.4 °F 24.7 °F 29.59 in WSW 4.0 mph 4.0 mph 76% 0.00 in 33 W/m2
15:18 31.0 °F 24.3 °F 29.58 in SW 5.0 mph 7.0 mph 76% 0.00 in 53 W/m2
15:24 30.9 °F 24.5 °F 29.58 in SW 5.0 mph 5.0 mph 77% 0.00 in 42 W/m2
15:30 30.9 °F 24.5 °F 29.59 in WSW 4.0 mph 4.0 mph 77% 0.00 in 40 W/m2
15:35 30.7 °F 24.3 °F 29.59 in WSW 5.0 mph 7.0 mph 77% 0.00 in 33 W/m2
15:42 30.5 °F 24.8 °F 29.59 in WSW 4.0 mph 5.0 mph 79% 0.00 in 46 W/m2
15:48 30.4 °F 25.0 °F 29.59 in SSW 4.0 mph 6.0 mph 80% 0.00 in 33 W/m2
15:54 30.3 °F 25.2 °F 29.59 in WSW 4.0 mph 5.0 mph 81% 0.00 in 26 W/m2
16:00 30.3 °F 25.5 °F 29.59 in WSW 4.0 mph 4.0 mph 82% 0.00 in 26 W/m2
16:06 30.3 °F 25.5 °F 29.59 in SW 3.0 mph 6.0 mph 82% 0.00 in 18 W/m2
16:12 30.3 °F 25.2 °F 29.59 in WSW 4.0 mph 6.0 mph 81% 0.00 in 19 W/m2
16:18 30.3 °F 25.2 °F 29.59 in WSW 4.0 mph 6.0 mph 81% 0.00 in 14 W/m2
16:23 30.3 °F 25.2 °F 29.59 in SW 3.0 mph 6.0 mph 81% 0.00 in 14 W/m2
16:29 30.3 °F 24.9 °F 29.59 in SW 3.0 mph 3.0 mph 80% 0.00 in 12 W/m2
16:36 30.2 °F 25.1 °F 29.59 in SSW 3.0 mph 7.0 mph 81% 0.00 in 9 W/m2
16:42 30.2 °F 25.1 °F 29.59 in WSW 3.0 mph 3.0 mph 81% 0.00 in 5 W/m2
16:48 30.1 °F 24.7 °F 29.59 in West 3.0 mph 4.0 mph 80% 0.00 in 0 W/m2
16:54 30.1 °F 24.7 °F 29.59 in SW 3.0 mph 6.0 mph 80% 0.00 in 0 W/m2
17:00 30.1 °F 24.7 °F 29.59 in WSW 2.0 mph 6.0 mph 80% 0.00 in 0 W/m2
17:06 30.0 °F 24.9 °F 29.59 in SSE 3.0 mph 6.0 mph 81% 0.00 in 0 W/m2
17:12 29.9 °F 25.1 °F 29.59 in SSW 3.0 mph 3.0 mph 82% 0.00 in 0 W/m2
17:18 29.8 °F 25.0 °F 29.59 in WSW 3.0 mph 6.0 mph 82% 0.00 in 0 W/m2
17:24 29.7 °F 24.9 °F 29.60 in West 3.0 mph 7.0 mph 82% 0.00 in 0 W/m2
17:30 29.6 °F 24.8 °F 29.60 in SW 3.0 mph 3.0 mph 82% 0.00 in 0 W/m2
17:35 29.5 °F 25.0 °F 29.60 in SSW 3.0 mph 4.0 mph 83% 0.00 in 0 W/m2
17:42 29.4 °F 24.9 °F 29.60 in WSW 3.0 mph 3.0 mph 83% 0.00 in 0 W/m2
17:48 29.4 °F 25.2 °F 29.60 in SW 3.0 mph 3.0 mph 84% 0.00 in 0 W/m2
17:54 29.4 °F 25.2 °F 29.60 in West 3.0 mph 3.0 mph 84% 0.00 in 0 W/m2
18:00 29.4 °F 25.2 °F 29.60 in SSW 3.0 mph 3.0 mph 84% 0.00 in 0 W/m2
18:06 29.4 °F 25.2 °F 29.60 in SSW 3.0 mph 4.0 mph 84% 0.00 in 0 W/m2
18:12 29.4 °F 24.9 °F 29.60 in SSW 3.0 mph 4.0 mph 83% 0.00 in 0 W/m2
18:18 29.5 °F 25.0 °F 29.60 in SW 2.0 mph 4.0 mph 83% 0.00 in 0 W/m2
18:23 29.5 °F 25.0 °F 29.60 in SSW 3.0 mph 7.0 mph 83% 0.00 in 0 W/m2
18:30 29.5 °F 25.3 °F 29.60 in South 3.0 mph 3.0 mph 84% 0.00 in 0 W/m2
18:35 29.4 °F 25.2 °F 29.60 in South 4.0 mph 4.0 mph 84% 0.00 in 0 W/m2
18:42 29.3 °F 25.1 °F 29.60 in West 4.0 mph 5.0 mph 84% 0.00 in 0 W/m2
18:48 29.2 °F 25.3 °F 29.60 in SW 3.0 mph 5.0 mph 85% 0.00 in 0 W/m2
18:54 29.2 °F 25.3 °F 29.60 in SW 2.0 mph 3.0 mph 85% 0.00 in 0 W/m2
19:00 29.2 °F 25.3 °F 29.60 in SW 2.0 mph 2.0 mph 85% 0.00 in 0 W/m2
19:06 29.2 °F 25.0 °F 29.60 in South 2.0 mph 3.0 mph 84% 0.00 in 0 W/m2
19:12 29.4 °F 25.2 °F 29.60 in SW 2.0 mph 2.0 mph 84% 0.00 in 0 W/m2
19:18 29.4 °F 24.9 °F 29.60 in SSW 2.0 mph 3.0 mph 83% 0.00 in 0 W/m2
19:24 29.5 °F 24.7 °F 29.60 in SSW 2.0 mph 4.0 mph 82% 0.00 in 0 W/m2
19:29 29.6 °F 24.8 °F 29.60 in South 2.0 mph 3.0 mph 82% 0.00 in 0 W/m2
19:36 29.6 °F 24.8 °F 29.60 in South 2.0 mph 3.0 mph 82% 0.00 in 0 W/m2
19:42 29.7 °F 24.9 °F 29.60 in South 1.0 mph 3.0 mph 82% 0.00 in 0 W/m2
19:48 29.8 °F 25.0 °F 29.60 in South 2.0 mph 3.0 mph 82% 0.00 in 0 W/m2
19:53 29.8 °F 25.0 °F 29.60 in South 2.0 mph 2.0 mph 82% 0.00 in 0 W/m2
19:59 29.8 °F 24.7 °F 29.60 in SSE 1.0 mph 3.0 mph 81% 0.00 in 0 W/m2
20:05 29.9 °F 24.8 °F 29.60 in SSE 2.0 mph 5.0 mph 81% 0.00 in 0 W/m2
20:12 30.0 °F 24.6 °F 29.60 in SSW 2.0 mph 4.0 mph 80% 0.00 in 0 W/m2
20:18 30.1 °F 24.7 °F 29.60 in South 3.0 mph 4.0 mph 80% 0.00 in 0 W/m2
20:24 30.2 °F 24.5 °F 29.60 in South 3.0 mph 4.0 mph 79% 0.00 in 0 W/m2
20:29 30.4 °F 24.1 °F 29.60 in SSW 3.0 mph 3.0 mph 77% 0.00 in 0 W/m2
20:35 30.7 °F 24.0 °F 29.60 in SSW 2.0 mph 3.0 mph 76% 0.00 in 0 W/m2
20:42 30.9 °F 23.6 °F 29.60 in West 3.0 mph 3.0 mph 74% 0.00 in 0 W/m2
20:48 31.0 °F 23.4 °F 29.60 in West 2.0 mph 3.0 mph 73% 0.00 in 0 W/m2
20:53 31.3 °F 23.0 °F 29.60 in SW 2.0 mph 5.0 mph 71% 0.00 in 0 W/m2
20:59 31.5 °F 22.8 °F 29.60 in WNW 3.0 mph 3.0 mph 70% 0.00 in 0 W/m2
21:05 31.5 °F 22.8 °F 29.60 in SW 3.0 mph 4.0 mph 70% 0.00 in 0 W/m2
21:12 31.6 °F 22.6 °F 29.60 in SSW 3.0 mph 6.0 mph 69% 0.00 in 0 W/m2
21:18 31.7 °F 22.7 °F 29.60 in SSW 4.0 mph 6.0 mph 69% 0.00 in 0 W/m2
21:24 31.7 °F 22.3 °F 29.60 in WSW 3.0 mph 4.0 mph 68% 0.00 in 0 W/m2
21:29 31.8 °F 22.4 °F 29.60 in West 3.0 mph 3.0 mph 68% 0.00 in 0 W/m2
21:36 31.8 °F 22.4 °F 29.60 in SW 3.0 mph 4.0 mph 68% 0.00 in 0 W/m2
21:42 31.7 °F 22.3 °F 29.60 in SW 3.0 mph 4.0 mph 68% 0.00 in 0 W/m2
21:48 31.7 °F 22.7 °F 29.60 in SW 3.0 mph 5.0 mph 69% 0.00 in 0 W/m2
21:53 31.7 °F 22.3 °F 29.60 in SSW 3.0 mph 6.0 mph 68% 0.00 in 0 W/m2
21:59 31.7 °F 22.3 °F 29.60 in WSW 4.0 mph 4.0 mph 68% 0.00 in 0 W/m2
22:05 31.8 °F 22.4 °F 29.60 in SW 4.0 mph 5.0 mph 68% 0.00 in 0 W/m2
22:18 31.7 °F 22.7 °F 29.60 in SW 3.0 mph 4.0 mph 69% 0.00 in 0 W/m2
22:24 31.7 °F 22.7 °F 29.60 in SW 3.0 mph 5.0 mph 69% 0.00 in 0 W/m2
22:30 31.7 °F 22.7 °F 29.60 in SSW 3.0 mph 7.0 mph 69% 0.00 in 0 W/m2
22:35 31.7 °F 22.7 °F 29.60 in West 3.0 mph 7.0 mph 69% 0.00 in 0 W/m2
22:42 31.7 °F 23.0 °F 29.59 in SW 4.0 mph 4.0 mph 70% 0.00 in 0 W/m2
22:48 31.6 °F 22.9 °F 29.59 in SW 3.0 mph 4.0 mph 70% 0.00 in 0 W/m2
22:54 31.6 °F 22.9 °F 29.59 in West 3.0 mph 6.0 mph 70% 0.00 in 0 W/m2
23:00 31.6 °F 22.9 °F 29.59 in SW 4.0 mph 4.0 mph 70% 0.00 in 0 W/m2
23:06 31.6 °F 22.9 °F 29.59 in WSW 4.0 mph 5.0 mph 70% 0.00 in 0 W/m2
23:12 31.6 °F 22.9 °F 29.59 in WSW 5.0 mph 7.0 mph 70% 0.00 in 0 W/m2
23:18 31.6 °F 23.3 °F 29.59 in SW 5.0 mph 7.0 mph 71% 0.00 in 0 W/m2
23:23 31.6 °F 23.3 °F 29.59 in SSW 5.0 mph 8.0 mph 71% 0.00 in 0 W/m2
23:30 31.6 °F 23.3 °F 29.58 in SSW 4.0 mph 4.0 mph 71% 0.00 in 0 W/m2
23:36 31.5 °F 23.2 °F 29.58 in SW 4.0 mph 8.0 mph 71% 0.00 in 0 W/m2
23:42 31.5 °F 23.2 °F 29.58 in SW 4.0 mph 4.0 mph 71% 0.00 in 0 W/m2
23:49 31.4 °F 23.4 °F 29.57 in SSW 3.0 mph 3.0 mph 72% 0.00 in 0 W/m2
23:56 31.4 °F 23.4 °F 29.57 in SSW 3.0 mph 5.0 mph 72% 0.00 in 0 W/m2
Country Meadow, Clay, NY, USA
Compliments of Weather Underground - 2 mb